Radiation Dose measured at exhaust stack monitor of Fukushima Daiichi Nuclear Power Station
Date,Time,Unit 5 6 shared exhaust cylinders,Wind Direction,Wind Velocity(m/s)
2024/06/02,00:00,3.7,north-northwest,4.9
2024/06/02,00:10,3.7,north-northwest,5.0
2024/06/02,00:20,3.7,north-northwest,4.6
2024/06/02,00:30,3.7,north-northwest,4.5
2024/06/02,00:40,3.7,north-northwest,4.7
2024/06/02,00:50,3.6,north-northwest,3.9
2024/06/02,01:00,3.7,north-northwest,3.8
2024/06/02,01:10,3.6,north-northwest,3.3
2024/06/02,01:20,3.7,north-northwest,3.5
2024/06/02,01:30,3.7,north-northwest,4.0
2024/06/02,01:40,3.8,north-northwest,4.2
2024/06/02,01:50,3.6,north-northwest,4.3
2024/06/02,02:00,3.6,north-northwest,4.6
2024/06/02,02:10,3.6,north-northwest,4.4
2024/06/02,02:20,3.7,north-northwest,4.3
2024/06/02,02:30,3.6,northwest,3.8
2024/06/02,02:40,3.6,northwest,3.1
2024/06/02,02:50,3.6,northwest,4.4
2024/06/02,03:00,3.5,northwest,3.4
2024/06/02,03:10,3.5,northwest,4.4
2024/06/02,03:20,3.7,north-northwest,4.4
2024/06/02,03:30,3.6,north-northwest,3.6
2024/06/02,03:40,3.8,northwest,4.9
2024/06/02,03:50,3.6,northwest,3.1
2024/06/02,04:00,3.6,northwest,5.0
2024/06/02,04:10,3.5,north-northwest,4.6
2024/06/02,04:20,3.5,north-northwest,4.7
2024/06/02,04:30,3.7,north-northwest,3.2
2024/06/02,04:40,3.6,north-northwest,5.1
2024/06/02,04:50,3.6,north-northwest,5.6
2024/06/02,05:00,3.6,north-northwest,4.8
2024/06/02,05:10,3.7,north-northwest,5.7
2024/06/02,05:20,3.7,north-northwest,5.3
2024/06/02,05:30,3.6,north-northwest,4.5
2024/06/02,05:40,3.6,north-northwest,3.7
2024/06/02,05:50,3.6,north-northwest,4.3
2024/06/02,06:00,3.7,north-northwest,3.7
2024/06/02,06:10,3.6,north-northwest,3.1
2024/06/02,06:20,3.6,north-northwest,3.1
2024/06/02,06:30,3.6,northwest,3.4
2024/06/02,06:40,3.4,north-northwest,3.2
2024/06/02,06:50,3.7,north-northwest,2.6
2024/06/02,07:00,3.7,north-northwest,2.3
2024/06/02,07:10,3.7,north-northwest,2.8
2024/06/02,07:20,3.8,north,2.3
2024/06/02,07:30,3.6,north-northeast,3.6
2024/06/02,07:40,3.4,north-northeast,3.5
2024/06/02,07:50,3.6,north-northeast,3.4
2024/06/02,08:00,3.5,north-northeast,3.6
2024/06/02,08:10,3.6,north-northeast,2.3
2024/06/02,08:20,3.5,north-northeast,2.9
2024/06/02,08:30,3.6,northeast,3.2
2024/06/02,08:40,3.6,north-northeast,3.3
2024/06/02,08:50,3.6,north-northeast,3.9
2024/06/02,09:00,3.6,north,4.1
2024/06/02,09:10,3.6,north-northeast,4.4
2024/06/02,09:20,3.6,northeast,4.2
2024/06/02,09:30,3.6,northeast,4.6
2024/06/02,09:40,3.6,north-northeast,4.0
2024/06/02,09:50,3.6,northeast,4.1
2024/06/02,10:00,3.7,northeast,4.2
2024/06/02,10:10,3.7,north-northeast,4.3
2024/06/02,10:20,3.7,north-northeast,3.6
2024/06/02,10:30,3.6,northeast,5.0
2024/06/02,10:40,3.7,northeast,5.7
2024/06/02,10:50,3.7,northeast,5.4
2024/06/02,11:00,3.6,north-northeast,4.9
2024/06/02,11:10,3.5,north-northeast,5.2
2024/06/02,11:20,3.5,north-northeast,5.1
2024/06/02,11:30,3.5,north-northeast,5.5
2024/06/02,11:40,3.6,north-northeast,5.5
2024/06/02,11:50,3.6,north-northeast,5.6
2024/06/02,12:00,3.7,north-northeast,5.3
2024/06/02,12:10,3.6,north-northeast,5.6
2024/06/02,12:20,3.7,northeast,4.1
2024/06/02,12:30,3.4,east-northeast,5.2
2024/06/02,12:40,3.7,northeast,4.4
2024/06/02,12:50,3.6,east-northeast,2.5
2024/06/02,13:00,3.7,east-northeast,3.0
2024/06/02,13:10,3.5,northeast,3.6
2024/06/02,13:20,3.6,east-northeast,3.5
2024/06/02,13:30,3.7,east-northeast,4.9
2024/06/02,13:40,3.7,east-northeast,4.5
2024/06/02,13:50,3.7,east-northeast,4.8
2024/06/02,14:00,3.7,northeast,5.1
2024/06/02,14:10,3.7,northeast,4.7
2024/06/02,14:20,3.5,east-northeast,4.9
2024/06/02,14:30,3.7,east-northeast,5.0
2024/06/02,14:40,3.7,east-northeast,4.3
2024/06/02,14:50,3.8,northeast,4.0
2024/06/02,15:00,3.6,east-northeast,3.3
2024/06/02,15:10,3.6,northeast,3.5
2024/06/02,15:20,3.5,east-northeast,2.6
2024/06/02,15:30,3.7,east-northeast,0.6
2024/06/02,15:40,3.6,east,1.7
2024/06/02,15:50,3.6,east-southeast,2.0
2024/06/02,16:00,3.7,east,2.6
2024/06/02,16:10,3.6,east-northeast,2.3
2024/06/02,16:20,3.4,east-northeast,4.0
2024/06/02,16:30,3.6,east,3.3
2024/06/02,16:40,3.7,east,3.6
2024/06/02,16:50,3.7,east-northeast,2.8
2024/06/02,17:00,3.6,east-northeast,2.6
2024/06/02,17:10,3.6,east-northeast,1.7
2024/06/02,17:20,3.5,northeast,2.0
2024/06/02,17:30,3.6,northeast,1.2
2024/06/02,17:40,3.7,east-northeast,1.1
2024/06/02,17:50,3.6,east-northeast,1.5
2024/06/02,18:00,3.8,east-northeast,1.9
2024/06/02,18:10,3.6,northeast,2.9
2024/06/02,18:20,3.6,east,2.9
2024/06/02,18:30,3.6,east,3.3
2024/06/02,18:40,3.6,east-northeast,4.1
2024/06/02,18:50,3.8,northeast,3.5
2024/06/02,19:00,3.8,northeast,3.5
2024/06/02,19:10,3.6,east-northeast,1.4
2024/06/02,19:20,3.8,east-northeast,1.4
2024/06/02,19:30,3.6,north-northeast,0.9
2024/06/02,19:40,3.6,north-northwest,1.7
2024/06/02,19:50,3.7,north,1.7
2024/06/02,20:00,3.5,north-northwest,2.3
2024/06/02,20:10,3.7,north,2.3
2024/06/02,20:20,3.6,north-northwest,1.5
2024/06/02,20:30,3.6,north,2.3
2024/06/02,20:40,3.5,east,1.7
2024/06/02,20:50,3.7,east,4.0
2024/06/02,21:00,3.7,east-northeast,3.8
2024/06/02,21:10,3.7,east-northeast,4.3
2024/06/02,21:20,3.6,east-northeast,3.5
2024/06/02,21:30,3.7,east-northeast,5.1
2024/06/02,21:40,3.7,east-northeast,5.7
2024/06/02,21:50,3.4,east,5.0
2024/06/02,22:00,3.5,east,4.0
2024/06/02,22:10,3.7,east-southeast,2.3
2024/06/02,22:20,3.5,southeast,3.0
2024/06/02,22:30,3.6,southeast,2.8
2024/06/02,22:40,3.6,north-northeast,1.9
2024/06/02,22:50,3.6,north,4.3
2024/06/02,23:00,3.5,north-northwest,5.3
2024/06/02,23:10,3.7,north-northwest,5.5
2024/06/02,23:20,3.6,north-northwest,5.9
2024/06/02,23:30,3.6,north-northwest,5.3
2024/06/02,23:40,3.7,north-northwest,5.5
2024/06/02,23:50,3.6,north-northwest,5.4
